"Pseudo-MPEC" for A118snk

Created 2024 Jul 15 21:22:07 UT using Find_Orb

Click here for an explanation of pseudo-MPECs

 
 Astrometry: 
     A118snk  C2024 07 03.18945619 36 53.530-25 09 08.71   ~7FEM 19.00oVNEOCPW68
     A118snk  C2024 07 03.19126019 36 53.357-25 09 08.21   ~7FEM 19.02oVNEOCPW68
     A118snk  C2024 07 03.19677419 36 53.057-25 09 05.87   ~7FEM 18.85oVNEOCPW68
     A118snk  C2024 07 03.20222419 36 52.769-25 09 04.86   ~7FEM 19.32oVNEOCPW68
     A118snk  C2024 07 06.42505419 34 05.575-24 49 20.19   ~7FEM 19.38wXNEOCPF52
     A118snk  C2024 07 06.43094919 34 05.221-24 49 17.95   ~7FEM 19.31wXNEOCPF52
     A118snk  C2024 07 06.43685019 34 04.863-24 49 15.67   ~7FEM 19.32wXNEOCPF52
     A118snk  C2024 07 06.44275219 34 04.506-24 49 13.45   ~7FEM 19.32wXNEOCPF52
     A118snk* C2024 07 14.19913319 26 28.426-23 53 53.84   ~7ENq 19.06oVNEOCPW68
     A118snk  C2024 07 14.21988019 26 27.007-23 53 44.34   ~7ENq 18.63oVNEOCPW68
     A118snk  C2024 07 14.22401519 26 26.726-23 53 42.50   ~7ENq 18.64oVNEOCPW68
     A118snk  C2024 07 14.22962019 26 26.285-23 53 39.84   ~7ENq 18.78oVNEOCPW68
     A118snk  C2024 07 15.02271719 25 38.21 -23 47 23.7    ~7F17       WNEOCPX09
     A118snk  C2024 07 15.02971719 25 37.79 -23 47 20.8    ~7F17       WNEOCPX09
     A118snk 1B2024 07 15.84911319 24 46.554-23 40 51.39   ~7FLM 18.9 VZNEOCPM49
     A118snk 1B2024 07 15.85627519 24 46.063-23 40 47.89   ~7FLM 18.6 VZNEOCPM49
     A118snk 1B2024 07 15.86342719 24 45.582-23 40 44.68   ~7FLM 18.5 VZNEOCPM49

Station data:
(F52) Pan-STARRS 2, Haleakala  (N20.707382 W156.255910)  US/Hawaii.
   Observers J. Bulger, T. Dukes, T. Lowe, A. Schultz, M. Willman. Measurers
   K. Chambers, S. Chastel, T. de Boer, L. Denneau, J. Fairlamb, H.
   Flewelling, M. Huber, C.-C. Lin, E. Magnier, Y. Ramanjooloo, R. Wainscoat,
   R. Weryk. 1.8-m Ritchey-Chrétien + CCD.
(M49) IAS Remote Observatory, Hakos  (S23.236549 E16.361720)  Namibia.
   Observers D. Husar, M. Junius. Measurer D. Husar. 0.25-m f/4.6 reflector +
   CCD.
(W68) ATLAS Chile, Rio Hurtado  (S30.471010 W70.764980)  Chile.  Observers L.
   Denneau, R. Siverd, J. Tonry, H. Weiland. Measurers L. Denneau, N.
   Erasmus, A. Fitzsimmons, A. Lawrence, J. Robinson, R. Siverd, J. Tonry, H.
   Weiland. 0.5-m reflector + CCD.
(X09) Deep Random Survey, Rio Hurtado  (S30.526310 W70.853300)  Chile.

Orbital elements:  A118snk
   Perihelion 2024 Oct 12.85057 +/- 0.428 TT = 20:24:49 (JD 2460596.35057)
Epoch 2024 Jul 15.0 TT = JDT 2460506.5   Earth MOID: 0.4131      AutoNEOCP
M 334.29759418 +/- 0.15             (J2000 ecliptic)
n   0.28605723 +/- 0.00309          Peri.   51.31783 +/- 0.23
a   2.28122134 +/- 0.0164           Node   297.01633 +/- 0.027
e   0.3833074 +/- 0.00403           Incl.    6.84965 +/- 0.058
P   3.44549                H 18.74  G  0.15   U  8.9
q 1.40681226 +/- 0.00104    Q 3.15563042 +/- 0.0319
From 17 observations 2024 July 3-15; mean residual 0".27
Residuals in arcseconds: 
240703 W68  .82+  .24+    240706 F52  .03-  .00     240715 X09  .02+  .08+    
240703 W68  .19-  .11+    240706 F52  .03-  .04-    240715 X09  .51+  .15-    
240703 W68  .19-  .53+    240714 W68  .36+  .27+    240715 M49  .08-  .04-    
240703 W68  .07-  .36-    240714 W68  .15+  .03+    240715 M49  .18-  .14+    
240706 F52  .03-  .03-    240714 W68  .13+  .09-    240715 M49  .14-  .02+    
240706 F52  .00   .03-    240714 W68  .73-  .08-    

Ephemerides (geocentric):
Date (UTC) HH   RA             Dec           delta  r     elong  mag " sig PA
---- --------  ------------   ------------  ------ ------ -----  --- --------
2024 07 15 21  19 24 44.369   -23 40 39.69  .59019 1.6054 175.5 18.9 .113 109
2024 07 15 22  19 24 41.773   -23 40 19.54  .59005 1.6053 175.5 18.9 .122 108
2024 07 15 23  19 24 39.177   -23 39 59.36  .58991 1.6051 175.4 18.9 .132 108
2024 07 16 00  19 24 36.580   -23 39 39.17  .58977 1.6049 175.4 18.9 .141 107
2024 07 16 01  19 24 33.983   -23 39 18.97  .58963 1.6048 175.3 18.9 .151 107
2024 07 16 02  19 24 31.385   -23 38 58.74  .58949 1.6046 175.3 18.9 .161 107
2024 07 16 03  19 24 28.788   -23 38 38.50  .58935 1.6045 175.2 18.9 .171 107
2024 07 16 04  19 24 26.190   -23 38 18.24  .58921 1.6043 175.2 18.9 .182 106
2024 07 16 05  19 24 23.592   -23 37 57.96  .58908 1.6041 175.2 18.9 .192 106
2024 07 16 06  19 24 20.994   -23 37 37.67  .58894 1.6040 175.1 18.9 .202 106
2024 07 16 07  19 24 18.395   -23 37 17.35  .58880 1.6038 175.1 18.9 .213 106
2024 07 16 08  19 24 15.796   -23 36 57.02  .58867 1.6036 175.0 18.9 .224 105
2024 07 16 09  19 24 13.198   -23 36 36.68  .58853 1.6035 175.0 18.9 .235 105
2024 07 16 10  19 24 10.598   -23 36 16.31  .58839 1.6033 174.9 18.9 .246 105
2024 07 16 11  19 24 07.999   -23 35 55.93  .58826 1.6031 174.9 18.9 .257 105
2024 07 16 12  19 24 05.400   -23 35 35.53  .58812 1.6030 174.9 18.9 .269 105
2024 07 16 13  19 24 02.800   -23 35 15.12  .58799 1.6028 174.8 18.9 .280 105
2024 07 16 14  19 24 00.201   -23 34 54.68  .58785 1.6027 174.8 18.9 .292 105
2024 07 16 15  19 23 57.601   -23 34 34.23  .58772 1.6025 174.7 18.9 .304 104
2024 07 16 16  19 23 55.001   -23 34 13.77  .58758 1.6023 174.7 18.9 .316 104
2024 07 16 17  19 23 52.401   -23 33 53.28  .58745 1.6022 174.6 18.9 .328 104
2024 07 16 18  19 23 49.801   -23 33 32.78  .58732 1.6020 174.6 18.9 .340 104
2024 07 16 19  19 23 47.200   -23 33 12.26  .58718 1.6018 174.5 18.9 .353 104
2024 07 16 20  19 23 44.600   -23 32 51.72  .58705 1.6017 174.5 18.9 .365 104
2024 07 16 21  19 23 42.000   -23 32 31.17  .58692 1.6015 174.5 18.9 .378 104
2024 07 16 22  19 23 39.399   -23 32 10.60  .58679 1.6013 174.4 18.9 .391 104
2024 07 16 23  19 23 36.799   -23 31 50.01  .58665 1.6012 174.4 18.9 .404 104
2024 07 17 00  19 23 34.198   -23 31 29.41  .58652 1.6010 174.3 18.9 .417 104
2024 07 17 01  19 23 31.598   -23 31 08.78  .58639 1.6009 174.3 18.9 .431 104
2024 07 17 02  19 23 28.997   -23 30 48.14  .58626 1.6007 174.2 18.9 .444 104
2024 07 17 03  19 23 26.397   -23 30 27.49  .58613 1.6005 174.2 19.0 .458 103
2024 07 17 04  19 23 23.796   -23 30 06.81  .58600 1.6004 174.1 19.0 .472 103
2024 07 17 05  19 23 21.196   -23 29 46.12  .58587 1.6002 174.1 19.0 .486 103
2024 07 17 06  19 23 18.595   -23 29 25.41  .58574 1.6000 174.0 19.0 .500 103
2024 07 17 07  19 23 15.995   -23 29 04.69  .58561 1.5999 174.0 19.0 .515 103
2024 07 17 08  19 23 13.394   -23 28 43.95  .58548 1.5997 174.0 19.0 .529 103
2024 07 17 09  19 23 10.794   -23 28 23.19  .58535 1.5996 173.9 19.0 .544 103
2024 07 17 10  19 23 08.194   -23 28 02.41  .58522 1.5994 173.9 19.0 .559 103
2024 07 17 11  19 23 05.593   -23 27 41.62  .58510 1.5992 173.8 19.0 .574 103
2024 07 17 12  19 23 02.993   -23 27 20.81  .58497 1.5991 173.8 19.0 .589 103
2024 07 17 13  19 23 00.393   -23 26 59.98  .58484 1.5989 173.7 19.0 .604 103
2024 07 17 14  19 22 57.793   -23 26 39.14  .58471 1.5987 173.7 19.0 .620 103
2024 07 17 15  19 22 55.194   -23 26 18.28  .58459 1.5986 173.6 19.0 .635 103
2024 07 17 16  19 22 52.594   -23 25 57.40  .58446 1.5984 173.6 19.0 .651 103
2024 07 17 17  19 22 49.995   -23 25 36.51  .58433 1.5983 173.5 19.0 .667 103
2024 07 17 18  19 22 47.395   -23 25 15.60  .58421 1.5981 173.5 19.0 .683 103
2024 07 17 19  19 22 44.796   -23 24 54.67  .58408 1.5979 173.4 19.0 .700 103
2024 07 17 20  19 22 42.197   -23 24 33.72  .58396 1.5978 173.4 19.0 .716 103